Regional Weather Roundup
Issued by NWS

Home | Current Version | Previous Version | Text Only | Print | Product List | Glossary On
Versions: 1 2 3 4 5 6 7 8 9 10 11 12 13 14 15 16 17 18 19 20 21 22 23 24 25 26 27 28 29 30 31 32 33 34 35 36 37 38 39 40 41 42 43 44 45 46 47 48 49 50
000
ASUS43 KLMK 300210
RWRKY
KENTUCKY REGIONAL WEATHER ROUNDUP
NATIONAL WEATHER SERVICE LOUISVILLE KY
1000 PM EDT SUN MAR 29 2015

NOTE "FAIR" INDICATES FEW OR NO CLOUDS BELOW 12,000 FEET
WITH NO SIGNIFICANT WEATHER AND/OR OBSTRUCTIONS TO VISIBILITY.

KYZ001>023-026-027-061>063-070>075-300300-
WESTERN AND SOUTH CENTRAL KENTUCKY

CITY           SKY/WX    TMP DP  RH WIND       PRES   REMARKS
PADUCAH        MOCLDY    56  44  64 W7        30.04R
HENDERSON      CLOUDY    54  39  58 W10       30.04R
OWENSBORO      LGT RAIN  56  42  59 SW9       30.03R
HOPKINSVILLE   MOCLDY    55  43  63 SW8       30.09R
BOWLING GREEN  MOCLDY    56  35  45 SW8       30.09R
GLASGOW        PTCLDY    53  33  46 W9        30.09R
$$

KYZ024-025-028>034-038-045-046-053-300300-
NORTH CENTRAL KENTUCKY

CITY           SKY/WX    TMP DP  RH WIND       PRES   REMARKS
LOUISVILLE/SDF CLOUDY    58  30  34 SW10      29.98F
LOUISVILLE/LOU LGT RAIN  57  29  34 SW8       29.98F
FORT KNOX      MOCLDY    55  32  41 S12       29.99R
$$

KYZ035>037-039>044-047>052-055>060-089>105-300300-
NORTHEAST KENTUCKY

CITY           SKY/WX    TMP DP  RH WIND       PRES   REMARKS
LEXINGTON      CLOUDY    53  23  31 S7        30.00F
COVINGTON      LGT RAIN  46  35  65 SW6       29.90F
FRANKFORT      CLOUDY    54  23  30 S8        29.97F
$$

KYZ054-064>069-076>088-106>120-300300-
SOUTHEAST KENTUCKY

CITY           SKY/WX    TMP DP  RH WIND       PRES   REMARKS
JACKSON        MOCLDY    51  13  21 VRB7      30.03R
LONDON         PTCLDY    53  16  23 S5        30.05R
SOMERSET       CLOUDY    52  19  28 S8        30.05S
MIDDLESBORO    MOCLDY    54  22  29 S12G17    30.09S
MONTICELLO     PTCLDY    55  24  30 S10       30.06S
$$



USA.gov is the U.S. government's official web portal to all federal, state and local government web resources and services.